Location: Ferchesar
(52.6477°N, 12.4298°E)
Time: 08:26:21
(UTC+01:00)

Vanguard 2 Rocket - Visible Passes

Search period start: 07 December 2021 00:00
Search period end: 17 December 2021 00:00
Orbit: 555 x 3324 km, 32.9° (Epoch: 06 December)

Date Brightness Start Highest point End Pass type
(mag) Time Alt. Az. Time Alt. Az. Time Alt. Az.
07 Dec 9.2 18:01:49 10° S 18:04:43 13° SSE 18:08:13 10° SE visible
07 Dec 9.4 20:11:42 10° SW 20:15:17 18° SSW 20:15:17 18° SSW visible
08 Dec 9.3 19:13:08 10° SSW 19:17:12 16° S 19:18:52 16° SSE visible
09 Dec 9.2 18:15:04 10° SSW 18:17:50 13° SSE 18:21:10 10° SE visible
09 Dec 9.6 20:26:03 10° SW 20:28:17 14° SSW 20:28:17 14° SSW visible
10 Dec 9.4 19:27:15 10° SSW 19:30:27 14° S 19:31:57 13° S visible
11 Dec 9.3 18:28:58 10° SSW 18:31:03 12° S 18:33:25 10° SSE visible
